Location: Marsån
(66.4167°N, 22.2833°E)
Time: 09:36:24
(UTC+00:00)

Cosmos 1707 - Pass Details

Date: 24 February 2024
Orbit: 480 x 489 km, 82.5° (Epoch: 20 April)

Event Time Altitude Azimuth Distance (km) Brightness Sun altitude
Rises 19:05:30 0° 341° (NNW) 2,564 7.0 -22.2°
Reaches altitude 10° 19:07:47 10° 351° (N) 1,679 5.8 -22.4°
Enters shadow 19:10:02 27° 22° (NNE) 974 4.1 -22.6°
